User: anonymous   Login
Location: Gwatt
(46.7204°N, 7.6223°E)
Time: 09:07:37
(UTC+00:00)
Language:

S-56A Canister/Altair - Orbit

View from above orbital plane
View from above orbital plane
View from above satellite
View from above satellite

Ground track
Ground track

The orbit data is extracted from the following two-line orbital elements,

1 00082U 61004B   21023.87224014 -.00000121  00000-0 -46559-4 0  9996
2 00082  38.8561 102.2045 1174812  67.4052 304.6550 12.26048803834861
Epoch (UTC): 23 January 2021 20:56:01
Eccentricity: 0.1174812
inclination: 38.8561°
perigee height: 633 km
apogee height: 2499 km
right ascension of ascending node: 102.2045°
argument of perigee: 67.4052°
revolutions per day: 12.26048803
mean anomaly at epoch: 304.6550°
orbit number at epoch: 83486

The dashed part of the orbit path shows where the satellite is in the earth's shadow,  

DLR